This is the latest recevied weather packets stored in our database for station/object SP1BMW-13. If no packets are shown the sender has not sent any weather packets the latest 10 day(s).
| Time | Temp. | Humidity | Pressure | Rain* | Wind** | Luminosity | Snow |
|---|---|---|---|---|---|---|---|
| 1788091357 | 26.11° C | 50% | 1007.4 hPa | 0 mm | 0 m/s | 98 W/m² | - |
| 1788091297 | 26.11° C | 49% | 1007.6 hPa | 0 mm | 1.79 m/s, 151° | 116 W/m² | - |
| 1788091237 | 26.11° C | 49% | 1007.4 hPa | 0 mm | 1.34 m/s, 248° | 134 W/m² | - |
| 1788091180 | 26.11° C | 49% | 1007.4 hPa | 0 mm | 0.89 m/s, 278° | 143 W/m² | - |
| 1788091117 | 26.11° C | 48% | 1007.4 hPa | 0 mm | 1.34 m/s, 37° | 153 W/m² | - |
| 1788091057 | 26.67° C | 48% | 1007.6 hPa | 0 mm | 0.89 m/s, 37° | 153 W/m² | - |
| 1788090997 | 26.67° C | 47% | 1007.5 hPa | 0 mm | 1.34 m/s, 311° | 147 W/m² | - |
| 1788090938 | 26.67° C | 48% | 1007.6 hPa | 0 mm | 1.34 m/s, 254° | 145 W/m² | - |
| 1788090877 | 26.67° C | 47% | 1007.6 hPa | 0 mm | 2.24 m/s, 245° | 151 W/m² | - |
| 1788090817 | 27.22° C | 48% | 1007.6 hPa | 0 mm | 0.45 m/s, 31° | 155 W/m² | - |
| 1788090757 | 27.22° C | 46% | 1007.5 hPa | 0 mm | 0.89 m/s, 83° | 169 W/m² | - |
| 1788090697 | 27.22° C | 47% | 1007.5 hPa | 0 mm | 0.89 m/s, 235° | 205 W/m² | - |
| 1788090637 | 27.22° C | 46% | 1007.6 hPa | 0 mm | 1.34 m/s, 212° | 652 W/m² | - |
| 1788090578 | 27.22° C | 46% | 1007.6 hPa | 0 mm | 1.79 m/s, 343° | 701 W/m² | - |
| 1788090523 | 27.22° C | 47% | 1007.4 hPa | 0 mm | 1.79 m/s, 222° | 690 W/m² | - |
| 1788090457 | 27.22° C | 46% | 1007.6 hPa | 0 mm | 1.79 m/s, 108° | 575 W/m² | - |
| 1788090397 | 27.22° C | 46% | 1007.5 hPa | 0 mm | 0.89 m/s, 315° | 674 W/m² | - |
| 1788090337 | 27.22° C | 45% | 1007.3 hPa | 0 mm | 0.89 m/s, 162° | 303 W/m² | - |
| 1788090277 | 27.22° C | 46% | 1007.4 hPa | 0 mm | 1.79 m/s, 294° | 645 W/m² | - |
| 1788090217 | 27.22° C | 48% | 1007.5 hPa | 0 mm | 0.45 m/s, 73° | 688 W/m² | - |
| 1788090157 | 26.67° C | 48% | 1007.7 hPa | 0 mm | 0.45 m/s, 276° | 203 W/m² | - |
| 1788090103 | 26.67° C | 48% | 1007.5 hPa | 0 mm | 0.89 m/s, 246° | 240 W/m² | - |
| 1788090039 | 26.67° C | 49% | 1007.6 hPa | 0 mm | 0.45 m/s, 282° | 725 W/m² | - |
| 1788089977 | 26.67° C | 48% | 1007.6 hPa | 0 mm | 1.34 m/s, 143° | 743 W/m² | - |
| 1788089917 | 26.67° C | 49% | 1007.7 hPa | 0 mm | 1.34 m/s, 340° | 766 W/m² | - |
* Rain latest hour (hover to see other rain measurements)
** Current wind speed in m/s (hover to see current wind gust speed)